This is the latest recevied weather packets stored in our database for station/object YO6LRV-3. If no packets are shown the sender has not sent any weather packets the latest 10 day(s).
| Time | Temp. | Humidity | Pressure | Rain* | Wind** | Luminosity | Snow |
|---|---|---|---|---|---|---|---|
| 1787846220 | 21.11° C | 79% | 1018.9 hPa | - | - | - | - |
| 1787845320 | 21.11° C | 79% | 1018.9 hPa | - | - | - | - |
| 1787844420 | 21.67° C | 76% | 1019 hPa | - | - | - | - |
| 1787842620 | 23.33° C | 76% | 1018.8 hPa | - | - | - | - |
| 1787824619 | 22.22° C | 89% | 1019.5 hPa | - | - | - | - |
| 1787819219 | 19.44° C | 89% | 1019.9 hPa | - | - | - | - |
| 1787817418 | 18.89° C | 91% | 1019.8 hPa | - | - | - | - |
| 1787805719 | 17.22° C | 100% | 1019 hPa | - | - | - | - |
| 1787804819 | 17.22° C | 100% | 1019.1 hPa | - | - | - | - |
| 1787803919 | 17.22° C | 100% | 1019 hPa | - | - | - | - |
| 1787803025 | 17.22° C | 100% | 1018.8 hPa | - | - | - | - |
| 1787802125 | 17.22° C | 100% | 1018.8 hPa | - | - | - | - |
| 1787801218 | 17.22° C | 100% | 1018.6 hPa | - | - | - | - |
| 1787800325 | 17.22° C | 100% | 1018.9 hPa | - | - | - | - |
| 1787799418 | 17.22° C | 100% | 1018.3 hPa | - | - | - | - |
| 1787798518 | 17.22° C | 100% | 1018.5 hPa | - | - | - | - |
| 1787797623 | 17.78° C | 100% | 1018.4 hPa | - | - | - | - |
| 1787796718 | 17.78° C | 100% | 1018.3 hPa | - | - | - | - |
| 1787795818 | 17.78° C | 100% | 1018.3 hPa | - | - | - | - |
| 1787794917 | 17.78° C | 100% | 1018.3 hPa | - | - | - | - |
| 1787794024 | 17.78° C | 100% | 1018.2 hPa | - | - | - | - |
| 1787793120 | 17.78° C | 97% | 1018.4 hPa | - | - | - | - |
| 1787792219 | 17.78° C | 96% | 1018.4 hPa | - | - | - | - |
| 1787791326 | 17.78° C | 95% | 1018.5 hPa | - | - | - | - |
| 1787790426 | 17.78° C | 94% | 1018.5 hPa | - | - | - | - |
* Rain since midnight (hover to see other rain measurements)
** Current wind speed in m/s (hover to see current wind gust speed)